Flag for Belgium Weather past 2 weeks in Namur, Belgium

Now
72 °F

Sunny.


Feels Like: 77 °F
Forecast: 64 / 89 °F
Wind: 5 mph from North

Location: Charleroi / Gosselies

Current Time: Aug 2, 2015 at 12:28:25 PM

Latest Report: Aug 2, 2015 at 11:50 AM


Visibility: 10 mi

Pressure: 30.12 "Hg

Humidity: 47%

Dew point: 50 °F

Location of NamurLocation

Historic Weather in Namur — Graph

°F

Namur temperature yesterday

Maximum temperature yesterday: 75 °F (at 3:50 PM)
Minimum temperature yesterday: 48 °F (at 6:20 AM)
Average temperature yesterday: 63 °F

Past Weeks' High & Low Weather Summary

 TemperatureHumidityPressure
High79 °F (Jul 21, 6:20 PM)100% (Jul 19, 5:50 AM)30.15 "Hg (Jul 19, 5:50 AM)
Low46 °F (Jul 31, 2:20 AM)31% (Aug 1, 3:50 PM)29.53 "Hg (Jul 25, 5:20 AM)
Average62 °F73%29.93 "Hg
* Reported Jul 18 11:20 AM — Aug 2 11:20 AM, Namur, Weather by CustomWeather, © 2015

Note: Actual official high and low records may vary slightly from our data, if they occured in-between our weather recording intervals... More about our weather records

Advertising

Namur weather history for previous 24 hours

 ConditionsComfort  
Time TempWeatherWind HumidityBarometerVisibility
11:20 AM
Sun, Aug 2
72 °FSunny.3 mph50%30.15 "Hg10 mi
10:50 AM70 °FPassing clouds.3 mph53%30.15 "HgN/A
10:20 AM68 °FPassing clouds.3 mph56%30.15 "HgN/A
9:50 AM66 °FPassing clouds.5 mph64%30.15 "HgN/A
9:20 AM63 °FPassing clouds.3 mph68%30.15 "HgN/A
8:50 AM63 °FClear.2 mph68%30.15 "Hg6 mi
8:20 AM59 °FClear.1 mph77%30.12 "Hg5 mi
7:50 AM55 °FClear.2 mph82%30.12 "Hg4 mi
7:20 AM54 °FClear.2 mph88%30.12 "Hg4 mi
6:50 AM50 °FPassing clouds.3 mph94%30.12 "HgN/A
6:20 AM50 °FClear.1 mph94%30.12 "Hg10 mi
5:50 AM52 °FClear.1 mph88%30.12 "Hg10 mi
5:20 AM52 °FClear.1 mph88%30.12 "Hg10 mi
4:50 AM52 °FClear.No wind88%30.12 "Hg10 mi
4:20 AM52 °FClear.3 mph88%30.12 "Hg10 mi
3:50 AM52 °FClear.2 mph88%30.12 "Hg10 mi
2:50 AM55 °FClear.1 mph77%30.09 "Hg10 mi
2:20 AM55 °FClear.3 mph77%30.09 "Hg10 mi
1:50 AM55 °FClear.3 mph82%30.09 "Hg10 mi
1:20 AM57 °FClear.5 mph72%30.09 "Hg10 mi
12:50 AM59 °FClear.5 mph68%30.09 "Hg10 mi
11:50 PM
Sat, Aug 1
61 °FClear.3 mph63%30.09 "Hg10 mi
11:20 PM61 °FPassing clouds.5 mph63%30.09 "HgN/A
10:50 PM63 °FClear.5 mph59%30.07 "Hg10 mi
10:20 PM64 °FPassing clouds.3 mph52%30.07 "HgN/A
9:50 PM66 °FPassing clouds.3 mph49%30.07 "HgN/A
9:20 PM66 °FPassing clouds.5 mph49%30.07 "HgN/A
8:50 PM68 °FPassing clouds.6 mph46%30.07 "HgN/A
8:20 PM70 °FPassing clouds.5 mph43%30.04 "HgN/A
7:50 PM70 °FPassing clouds.6 mph46%30.04 "HgN/A
7:20 PM70 °FPassing clouds.6 mph43%30.04 "HgN/A
6:50 PM72 °FPassing clouds.9 mph41%30.01 "HgN/A
6:20 PM73 °FPassing clouds.6 mph38%30.01 "HgN/A
5:50 PM73 °FPassing clouds.6 mph38%30.01 "HgN/A
4:50 PM73 °FPassing clouds.5 mph38%30.01 "HgN/A
4:20 PM73 °FPassing clouds.6 mph41%30.01 "HgN/A
3:50 PM75 °FSunny.2 mph31%30.01 "Hg10 mi
3:20 PM73 °FSunny.2 mph36%30.01 "Hg10 mi
2:50 PM73 °FSunny.5 mph36%30.01 "Hg10 mi
2:20 PM72 °FSunny.5 mph38%30.01 "Hg10 mi
1:50 PM72 °FPassing clouds.5 mph38%30.01 "HgN/A
1:20 PM72 °FPassing clouds.1 mph41%30.01 "HgN/A
12:50 PM70 °FPassing clouds.5 mph40%30.01 "HgN/A
12:20 PM72 °FPassing clouds.5 mph41%30.01 "HgN/A
Weather by CustomWeather, © 2015

See weather overviewHow to use our weather pages